Simultaneous Nadir Overpasses (SNOs) Predictions

Prediction of SNOs between AQUA and METOP-A Satellite Orbit:

Table of predicted SNOs for the next 14.0 days since TLE Epoch: 7/31/2020
Index Date (AQUA) Time (AQUA) Lat,Lon (AQUA) SZA (AQUA ) Date (METOP-A) Time (METOP-A) Lat,Lon (METOP-A) SZA (METOP-A ) Distance(km) Time Diff (sec)
1 08/02/2020 21:36:27 76.45,-156.75 59.38 08/02/2020 21:36:05 76.45,-156.69 59.38 1.68 22
2 08/02/2020 22:25:53 -76.48, 10.80 120.58 08/02/2020 22:26:46 -76.47, 10.72 120.60 2.52 53
3 08/05/2020 16:21:04 -75.95, 103.68 120.48 08/05/2020 16:19:59 -75.86, 100.36 120.32 90.56 65
4 08/05/2020 17:10:42 76.45, -90.29 60.12 08/05/2020 17:10:26 76.46, -90.30 60.14 1.08 16
5 08/05/2020 18:00:07 -76.47, 77.27 119.84 08/05/2020 18:01:06 -76.49, 77.13 119.84 3.91 59
6 08/08/2020 11:55:23 -76.18, 169.38 119.42 08/08/2020 11:54:14 -76.11, 167.51 119.35 50.32 69
7 08/08/2020 12:44:56 76.45, -23.84 60.90 08/08/2020 12:44:46 76.47, -23.91 60.93 2.87 10
8 08/08/2020 13:34:23 -76.52, 143.56 119.01 08/08/2020 13:35:27 -76.50, 143.53 119.04 2.18 64
9 08/11/2020 07:29:43 -76.42,-124.97 118.32 08/11/2020 07:28:30 -76.35,-125.31 118.35 12.26 73
10 08/11/2020 08:19:12 76.50, 42.43 61.78 08/11/2020 08:19:07 76.48, 42.47 61.76 2.68 5
11 08/11/2020 09:08:38 -76.52,-150.00 118.19 08/11/2020 09:09:48 -76.51,-150.07 118.21 2.07 70
12 08/14/2020 03:03:58 -76.43, -58.54 117.47 08/14/2020 03:02:49 -76.45, -58.59 117.42 2.94 69
13 08/14/2020 03:53:27 76.50, 108.85 62.63 08/14/2020 03:53:28 76.48, 108.85 62.61 2.35 1
